Dewpoint
31 31 31 31 32 33 34 35 37 36 38 38 36 35 35 35 34 33 32 31 32 30
31 31 30 30 31 32 32 31 33 35 35 36 35 35 33 34 33 32 32 31 31 30
28 29 30 31 32 32 31 31 32 33 34 34 34 34 33 33 33 32 30 30 29 29
26 26 25 25 28 31 31 31 31 31 33 33 33 33 32 31 31 30 30 28 28 27
22 24 22 22 24 29 30 31 30 30 30 31 31 31 31 30 29 29 28 27 26 24
23 24 23 21 23 26 27 28 30 29 29 29 29 29 29 29 28 27 27 26 25 23
21 22 21 20 22 25 26 25 27 28 28 28 27 26 27 27 26 26 25 25 25 23
20 20 22 22 22 26 26 24 25 27 28 28 27 25 26 25 26 26 25 24 23 23
24 23 23 22 21 23 24 22 23 23 24 26 26 29 30 29 27 25 23 23 23 22
23 23 21 20 18 18 19 19 20 21 22 22 24 27 29 31 29 27 26 23 22 21
22 21 19 17 17 16 17 17 17 18 21 22 22 25 27 30 29 28 27 26 24 23
19 20 19 17 15 15 17 17 18 19 19 20 22 24 25 26 29 28 28 27 26 25
19 18 17 17 15 16 16 16 15 16 17 18 19 22 24 24 26 28 28 28 27 28
17 17 16 16 15 14 13 13 12 12 13 15 17 19 22 24 24 26 27 27 28 27
Lifted_Index
12 12 11 12 12 13 13 14 15 15 16 15 15 15 14 13 13 14 15 16 16 16
12 12 12 12 12 12 13 14 14 15 15 16 16 15 14 13 13 13 14 15 16 16
12 12 12 12 12 12 13 13 13 13 14 15 15 15 15 14 13 13 13 14 15 15
13 13 13 12 12 12 12 12 12 12 12 13 14 14 14 14 14 13 13 13 14 14
15 14 14 14 13 13 13 13 13 12 12 12 12 13 13 13 13 13 13 13 13 13
15 15 15 16 15 15 14 14 13 13 12 12 11 12 12 12 12 12 13 13 13 13
15 15 16 16 17 17 16 16 15 14 14 13 13 12 12 11 11 12 12 13 13 13
16 16 16 16 17 17 17 17 16 16 15 15 15 14 13 12 12 11 11 11 12 12
16 16 16 16 16 16 16 17 17 17 17 17 17 17 16 15 13 12 11 10 11 11
16 16 16 16 16 16 16 16 16 17 17 17 18 18 18 17 16 14 12 11 10 11
15 15 15 15 16 16 16 16 16 16 16 17 17 18 18 18 18 17 15 13 12 11
14 14 14 14 14 15 15 15 16 16 16 16 16 17 17 18 18 18 17 15 14 13
13 13 13 14 14 14 14 14 15 15 15 16 16 16 16 17 17 18 17 17 15 14
13 13 14 14 14 13 13 14 14 14 15 15 15 15 15 15 17 17 18 17 16 15